Location: Nied?wied?
(53.3665°N, 14.8184°E)
Time: 17:21:17
(UTC+00:00)

ISS - Pass Details

Date: 19 May 2021
Orbit: 417 x 422 km, 51.6° (Epoch: 14 June)

Event Time Altitude Azimuth Distance (km) Brightness Sun altitude
Rises 21:42:20 0° 270° (W) 2,368 0.3 -14.9°
Reaches altitude 10° 21:44:26 10° 267° (W) 1,504 -0.8 -15.0°
Maximum altitude 21:47:47 64° 186° (S) 472 -3.8 -15.1°
Enters shadow 21:50:02 19° 108° (ESE) 1,073 -2.0 -15.2°
